Location: Newark
(46.3833°N, 6.2000°E)
Time: 21:15:45
(UTC+00:00)

N. Korean satellite - Pass Details

Date: 04 March 2020
Orbit: 454 x 507 km, 97.2° (Epoch: 09 April)

Event Time Altitude Azimuth Distance (km) Brightness Sun altitude
Rises 04:40:15 0° 24° (NNE) 2,611 10.7 -16.0°
Reaches altitude 10° 04:42:39 10° 38° (NE) 1,713 10.0 -15.6°
Maximum altitude 04:45:43 24° 94° (E) 1,055 9.2 -15.1°
Drops below altitude 10° 04:48:43 10° 150° (SSE) 1,678 9.6 -14.5°
Sets 04:51:02 0° 165° (SSE) 2,543 10.3 -14.1°
